Location: Moscow Pond
(43.6842°N, 73.2366°W)
Time: 01:40:34
(UTC+00:00)

Cosmos 44 Rocket - Pass Details

Date: 08 November 2025
Orbit: 637 x 741 km, 65.1° (Epoch: 04 December)

Event Time Altitude Azimuth Distance (km) Brightness Sun altitude
Exits shadow 09:00:49 38° 15° (NNE) 1,117 4.4 -28.7°
Maximum altitude 09:01:57 44° 49° (NE) 1,017 4.4 -28.5°
Drops below altitude 10° 09:06:52 10° 121° (ESE) 2,245 6.6 -27.6°
Sets 09:09:21 0° 128° (SE) 3,166 7.4 -27.1°
